EW8320 Weather Reports


Display with metric or nautical units.
time (UTC)temp
F
wind
direction
speed
MPH
gust
MPH
rain 1hr
in
rain 24hr
in
rain mn
in
humidity
%
barometer
mb
20260831225017 80 294 3.0 5.0 0.00 0.00 0.00 20 1016.1
20260831224914 80 109 4.0 6.0 0.00 0.00 0.00 20 1016.3
20260831223916 80 113 4.0 6.0 0.00 0.00 0.00 19 1016.3
20260831223014 80 98 1.0 5.0 0.00 0.00 0.00 19 1016.5
20260831222013 79 107 4.0 9.0 0.00 0.00 0.00 19 1016.5
20260831221915 79 129 5.0 8.0 0.00 0.00 0.00 20 1016.5
20260831221013 79 80 2.0 4.0 0.00 0.00 0.00 20 1016.8
20260831215013 79 76 3.0 7.0 0.00 0.00 0.00 19 1017.0
20260831214031 80 97 2.0 6.0 0.00 0.00 0.00 19 1017.1
20260831212114 81 82 4.0 7.0 0.00 0.00 0.00 18 1017.3
20260831211114 80 76 5.0 11.0 0.00 0.00 0.00 19 1017.3
20260831210115 77 74 4.0 9.0 0.00 0.00 0.00 20 1017.6
20260831210013 77 345 0.0 3.0 0.00 0.00 0.00 19 1017.6
20260831203015 80 104 8.0 11.0 0.00 0.00 0.00 36 1017.9
20260831202026 75 85 5.0 7.0 0.00 0.00 0.00 20 1017.9
20260831201028 76 105 3.0 5.0 0.00 0.00 0.00 21 1018.2
20260831195126 72 102 2.0 3.0 0.00 0.00 0.00 23 1018.6
20260831194129 72 119 0.0 3.0 0.00 0.00 0.00 24 1018.6
20260831192228 70 65 5.0 10.0 0.00 0.00 0.00 24 1019.1
20260831191228 64 96 7.0 9.0 0.00 0.00 0.00 91 1019.1
20260831190327 67 95 3.0 7.0 0.00 0.00 0.00 70 1019.2
20260831185328 63 116 2.0 4.0 0.00 0.00 0.00 26 1019.5
20260831185227 64 86 4.0 7.0 0.00 0.00 0.00 26 1019.5
20260831184228 69 111 4.0 5.0 0.00 0.00 0.00 28 1019.8
20260831183327 68 101 5.0 7.0 0.00 0.00 0.00 29 1019.9
20260831182329 67 89 5.0 8.0 0.00 0.00 0.00 32 1020.0
20260831175326 66 136 6.0 9.0 0.00 0.00 0.00 31 1020.2
20260831173427 65 85 7.0 9.0 0.00 0.00 0.00 30 1020.4
20260831171525 63 117 7.0 9.0 0.00 0.00 0.00 33 1020.5
20260831170528 58 101 3.0 6.0 0.00 0.00 0.00 35 1020.6
20260831165527 59 101 4.0 7.0 0.00 0.00 0.00 37 1020.7
20260831164527 59 116 1.0 2.0 0.00 0.00 0.00 40 1020.9
20260831163543 58 104 3.0 5.0 0.00 0.00 0.00 41 1020.9
20260831162628 57 112 5.0 7.0 0.00 0.00 0.00 43 1021.2
20260831161658 56 121 4.0 5.0 0.00 0.00 0.00 43 1021.2
20260831160727 55 109 4.0 5.0 0.00 0.00 0.00 46 1021.2
20260831155742 55 105 2.0 4.0 0.00 0.00 0.00 48 1021.3
20260831154827 52 90 1.0 1.0 0.00 0.00 0.00 50 1021.4
20260831152827 49 199 1.0 2.0 0.00 0.00 0.00 57 1021.4
20260831151827 48 162 2.0 3.0 0.00 0.00 0.00 59 1021.4
20260831150926 47 184 1.0 2.0 0.00 0.00 0.00 60 1021.4
20260831150827 47 194 1.0 3.0 0.00 0.00 0.00 60 1021.3
20260831145828 46 200 2.0 3.0 0.00 0.00 0.00 63 1021.3
20260831143926 43 180 0.0 2.0 0.00 0.00 0.00 67 1021.0
20260831142028 41 197 3.0 5.0 0.00 0.00 0.00 68 1020.7
20260831141126 42 202 2.0 4.0 0.00 0.00 0.00 67 1020.8
20260831141028 42 204 3.0 4.0 0.00 0.00 0.00 67 1020.6
20260831140044 40 267 3.0 7.0 0.00 0.00 0.00 70 1020.6
20260831135128 40 254 2.0 4.0 0.00 0.00 0.00 68 1020.5
20260831134128 41 246 1.0 3.0 0.00 0.00 0.00 66 1020.4
20260831133129 41 261 3.0 7.0 0.00 0.00 0.00 66 1020.3
20260831132126 42 268 3.0 7.0 0.00 0.00 0.00 66 1020.4
20260831131144 41 257 3.0 6.0 0.00 0.00 0.00 67 1020.2
20260831130128 41 258 3.0 5.0 0.00 0.00 0.00 67 1020.2
20260831125227 42 268 4.0 6.0 0.00 0.00 0.00 66 1020.2
20260831124128 42 258 6.0 8.0 0.00 0.00 0.00 67 1020.3
20260831123127 42 276 4.0 7.0 0.00 0.00 0.00 66 1020.3
20260831122129 42 274 3.0 5.0 0.00 0.00 0.00 66 1020.3
20260831121126 42 276 5.0 9.0 0.00 0.00 0.00 67 1020.2
20260831120225 42 274 3.0 7.0 0.00 0.00 0.00 68 1020.3
20260831115227 42 282 3.0 7.0 0.00 0.00 0.00 68 1020.3
20260831114326 42 271 3.0 6.0 0.00 0.00 0.00 66 1020.5
20260831113328 42 274 3.0 7.0 0.00 0.00 0.00 67 1020.4
20260831112329 42 283 4.0 7.0 0.00 0.00 0.00 67 1020.6
20260831111327 42 276 4.0 8.0 0.00 0.00 0.00 68 1020.6
20260831110426 42 275 3.0 5.0 0.00 0.00 0.00 67 1020.6
20260831105525 42 267 5.0 8.0 0.00 0.00 0.00 68 1020.6
20260831104529 42 289 4.0 6.0 0.00 0.00 0.00 67 1020.4
20260831103527 42 279 5.0 7.0 0.00 0.00 0.00 66 1020.5
20260831102526 43 268 5.0 7.0 0.00 0.00 0.00 66 1020.6
20260831101528 43 273 3.0 6.0 0.00 0.00 0.00 66 1020.5
20260831100530 43 278 3.0 6.0 0.00 0.00 0.00 65 1020.7
20260831094528 43 271 4.0 6.0 0.00 0.00 0.00 66 1020.7
20260831092527 44 271 4.0 8.0 0.00 0.00 0.00 64 1021.0
20260831091528 44 262 3.0 6.0 0.00 0.00 0.00 64 1021.0
20260831090527 44 280 3.0 7.0 0.00 0.00 0.00 65 1021.0
20260831085528 44 268 4.0 6.0 0.00 0.00 0.00 65 1021.1
20260831084626 43 271 3.0 6.0 0.00 0.00 0.00 63 1021.2
20260831083629 41 265 4.0 6.0 0.00 0.00 0.00 60 1021.2
20260831082726 39 269 3.0 8.0 0.00 0.00 0.00 59 1021.3
20260831081725 40 266 3.0 6.0 0.00 0.00 0.00 59 1021.3
20260831073827 47 267 2.0 5.0 0.00 0.00 0.00 59 1021.4
20260831072827 48 249 3.0 6.0 0.00 0.00 0.00 57 1021.3
20260831071827 48 263 4.0 7.0 0.00 0.00 0.00 56 1021.3
20260831065906 48 247 3.0 8.0 0.00 0.00 0.00 58 1021.4
20260831065004 48 266 4.0 7.0 0.00 0.00 0.00 56 1021.5
20260831064103 48 280 3.0 7.0 0.00 0.00 0.00 56 1021.5
20260831063107 49 251 3.0 6.0 0.00 0.00 0.00 56 1021.4
20260831062106 49 289 3.0 6.0 0.00 0.00 0.00 55 1021.5
20260831061106 50 274 3.0 7.0 0.00 0.00 0.00 53 1021.3
20260831055106 50 267 4.0 7.0 0.00 0.00 0.00 55 1021.6
20260831054108 48 261 2.0 7.0 0.00 0.00 0.00 57 1021.5
20260831052307 42 203 2.0 3.0 0.00 0.00 0.00 58 1021.5
20260831051307 46 202 0.0 0.0 0.00 0.00 0.00 59 1021.5
20260831050307 49 225 0.0 0.0 0.00 0.00 0.00 55 1021.7
20260831045306 51 232 1.0 2.0 0.00 0.00 0.00 52 1021.6
20260831044305 50 247 0.0 1.0 0.00 0.00 0.00 51 1021.6
20260831043306 50 247 0.0 1.0 0.00 0.00 0.00 52 1021.4
20260831042308 50 270 0.0 0.0 0.00 0.00 0.00 52 1021.5
20260831041305 51 315 0.0 0.0 0.00 0.00 0.00 51 1021.5
20260831040404 52 112 1.0 2.0 0.00 0.00 0.00 48 1021.6
20260831035404 53 247 0.0 0.0 0.00 0.00 0.00 47 1021.4
20260831034407 55 247 0.0 0.0 0.00 0.00 0.00 43 1021.6
20260831033504 54 287 2.0 3.0 0.00 0.00 0.00 43 1021.4
20260831032504 54 180 0.0 0.0 0.00 0.00 0.00 45 1021.1
20260831031506 55 180 0.0 0.0 0.00 0.00 0.00 43 1020.9
20260831030504 56 202 1.0 2.0 0.00 0.00 0.00 40 1020.8
20260831024505 57 321 1.0 3.0 0.00 0.00 0.00 39 1020.7
20260831023507 58 292 0.0 0.0 0.00 0.00 0.00 39 1020.6
20260831021505 63 300 0.0 0.0 0.00 0.00 0.00 33 1020.6
20260831015505 66 337 2.0 4.0 0.00 0.00 0.00 29 1020.5
20260831014604 66 337 0.0 1.0 0.00 0.00 0.00 28 1020.6
20260831013607 66 67 0.0 0.0 0.00 0.00 0.00 27 1020.6
20260831012606 67 77 2.0 4.0 0.00 0.00 0.00 27 1020.7
20260831011604 68 67 0.0 1.0 0.00 0.00 0.00 26 1020.5
20260831011504 68 67 0.0 1.0 0.00 0.00 0.00 27 1020.6
20260831010504 68 77 3.0 6.0 0.00 0.00 0.00 25 1020.7
20260831005604 69 71 5.0 7.0 0.00 0.00 0.00 26 1020.7
20260831004606 69 75 3.0 6.0 0.00 0.00 0.00 26 1020.8
20260831003606 70 81 5.0 7.0 0.00 0.00 0.00 24 1020.8
20260831002605 70 64 5.0 9.0 0.00 0.00 0.00 24 1020.7
20260831001704 71 88 6.0 8.0 0.00 0.00 0.00 23 1020.6
20260831000803 72 70 4.0 7.0 0.00 0.00 0.00 23 1020.7
20260830234804 71 60 2.0 4.0 0.00 0.00 0.00 24 1020.7
20260830233806 71 108 3.0 5.0 0.00 0.00 0.00 24 1020.8
20260830232808 71 79 2.0 4.0 0.00 0.00 0.00 23 1020.8
20260830231905 72 62 4.0 8.0 0.00 0.00 0.00 24 1020.8
20260830231005 71 32 2.0 4.0 0.00 0.00 0.00 24 1021.0